Regional Weather Roundup
Issued by NWS Sioux Falls, SD

Home | Current Version | Previous Version | Graphics & Text | Print | Product List | Glossary Off
Versions: 1 2 3 4 5 6 7 8 9 10 11 12 13 14 15 16 17 18 19 20 21 22 23 24 25 26 27 28 29 30 31 32 33 34 35 36 37 38 39 40 41 42 43 44 45 46 47 48 49 50

000
ASUS43 KFSD 290602
RWRFSD

WEATHER ROUNDUP FOR SE SOUTH DAKOTA/SW MINNESOTA/NW IOWA
NATIONAL WEATHER SERVICE SIOUX FALLS SD
1200 AM CST THU JAN 29 2015

NOTE: "FAIR" INDICATES FEW OR NO CLOUDS BELOW 12,000 FEET WITH NO
SIGNIFICANT WEATHER AND OR OBSTRUCTIONS TO VISIBILITY.


SDZ038>040-050-052>070-290700-
SOUTHEAST SOUTH DAKOTA

CITY           SKY/WX    TMP DP  RH WIND       PRES   REMARKS
CHAMBERLAIN    NOT AVBL
HURON          CLOUDY    33  29  85 NW25G33   30.12R WCI  20
6HR MIN TEMP:  33; 6HR MAX TEMP:  42; 6HR PCP: TRACE;

MADISON        CLOUDY    32  32 100 N20G37    30.02R WCI  20
MITCHELL       CLOUDY    34  29  82 NW22G33   30.13R WCI  22
6HR MIN TEMP:  34; 6HR MAX TEMP:  43;

SIOUX FALLS    CLOUDY    34  29  82 NW23G36   30.01R WCI  22
6HR MIN TEMP:  34; 6HR MAX TEMP:  38;

WINNER         CLOUDY    37  29  72 N25G37    30.22R
YANKTON        CLOUDY   N/A N/A N/A NW28G36   30.08R
$$

MNZ071-072-080-081-089-090-097-098-290700-
SOUTHWEST MINNESOTA

CITY           SKY/WX    TMP DP  RH WIND       PRES   REMARKS
FAIRMONT       CLOUDY    34  28  80 NW20G26   29.87R WCI  22
JACKSON        CLOUDY    34  32  93 NW23G33   29.90R FOG     WCI  22
LUVERNE        CLOUDY    36  32  87 N16G28    29.98R
MARSHALL       CLOUDY    34  27  75 N30G43    29.98R WCI  20
6HR MIN TEMP:  32; 6HR MAX TEMP:  34;

MONTEVIDEO     CLOUDY    32  32 100 N25G36    29.98R WCI  19
PIPESTONE      CLOUDY    34  30  86 N22G33    29.97R WCI  22
REDWOOD FALLS  CLOUDY    34  32  92 NW13G23   29.93R FOG     WCI  25
TRACY          CLOUDY    33  32  95 N22G30    29.95R FOG     WCI  21
WINDOM         CLOUDY    34  34 100 NW28G33   29.91R FOG     WCI  20
WORTHINGTON    CLOUDY   N/A N/A N/A N30G36    29.93R
$$

IAZ001>003-012>014-020>022-031-032-NEZ013-014-SDZ071-290700-
NORTHWEST IOWA

CITY           SKY/WX    TMP DP  RH WIND       PRES   REMARKS
DENISON        CLOUDY    37  37 100 N22G31    29.91R FOG
ESTHERVILLE    CLOUDY    32  31  96 N21G30    29.88R FOG     WCI  20
SIOUX CITY     CLOUDY    37  32  82 NW29G40   29.99R
6HR MIN TEMP:  35; 6HR MAX TEMP:  45; 6HR PCP: TRACE;

SPENCER        CLOUDY    35  32  88 NW22G32   29.92R WCI  23
6HR MIN TEMP:  32; 6HR MAX TEMP:  36;

$$

ABBREVIATIONS USED IN REMARKS
   TC - TEMPERATURE IN CELSIUS
  WCI - WIND CHILL INDEX
   HX - HEAT INDEX
  VSB - VISIBILITY




USA.gov is the U.S. government's official web portal to all federal, state and local government web resources and services.